This demonstration page uses our WeatherBlox Daily Observations layout. Learn more.

Left ArrowRight Arrow

39.12711, -84.51439

Hourly Observations for June 25, 2021

Temp ( °F °C ) Dew Point ( °F °C ) Humidity (%) Winds ( mph kmh ) Pressure ( in mb ) Visibility ( mi km ) Precip ( " mm )
12:53 am 00:53 Mostly Cloudy 71 21.7 65 18.3 81 81 SW 7 11 30.07 1018 10 16 N/A
1:53 am 01:53 Mostly Cloudy 71 21.7 65 18.3 81 81 SW 6 9 30.09 1019 10 16 0.00 0.00
2:53 am 02:53 Cloudy with Light Rain 71 21.7 64 17.8 79 79 SW 7 11 30.09 1019 10 16 0.00 0.00
3:53 am 03:53 Cloudy 70 21.1 65 18.3 84 84 N N/A 30.09 1019 10 16 0.00 0.00
4:53 am 04:53 Partly Cloudy 69 20.6 66 18.9 90 90 N N/A 30.09 1019 10 16 N/A
5:53 am 05:53 Partly Cloudy 69 20.6 65 18.3 87 87 SSW 6 9 30.09 1019 10 16 N/A
6:53 am 06:53 Mostly Sunny 69 20.6 65 18.3 87 87 SSW 7 11 30.09 1019 10 16 N/A
7:53 am 07:53 Sunny 72 22.2 65 18.3 79 79 S 13 20 30.09 1019 10 16 N/A
8:53 am 08:53 Mostly Sunny 73 22.8 66 18.9 79 79 S 10 17 30.10 1019 10 16 N/A
9:53 am 09:53 Partly Cloudy 74 23.3 66 18.9 76 76 S 13 20 30.11 1020 10 16 N/A
10:53 am 10:53 Cloudy 75 23.9 66 18.9 74 74 S 14 22 30.11 1020 10 16 N/A
11:53 am 11:53 Cloudy 76 24.4 66 18.9 72 72 S 14 22 30.11 1020 10 16 N/A
12:53 pm 12:53 Cloudy 78 25.6 68 20 71 71 S 12 19 30.10 1019 10 16 N/A
1:53 pm 13:53 Cloudy 80 26.7 69 20.6 69 69 S 15 24 30.07 1018 10 16 N/A
2:53 pm 14:53 Cloudy 79 26.1 69 20.6 72 72 S 13 20 30.06 1018 10 16 N/A
3:53 pm 15:53 Cloudy 81 27.2 70 21.1 69 69 S 9 15 30.04 1017 10 16 N/A
4:53 pm 16:53 Mostly Cloudy 81 27.2 70 21.1 69 69 S 15 24 30.04 1017 10 16 N/A
5:53 pm 17:53 Sunny 82 27.8 71 21.7 69 69 S 12 19 30.02 1017 10 16 N/A
6:53 pm 18:53 Partly Cloudy 83 28.3 71 21.7 67 67 S 9 15 30.00 1016 10 16 N/A
7:53 pm 19:53 Sunny 81 27.2 69 20.6 67 67 S 13 20 29.97 1015 10 16 N/A
8:53 pm 20:53 Sunny 78 25.6 70 21.1 76 76 S 9 15 29.98 1015 10 16 N/A
9:53 pm 21:53 Clear 77 25 69 20.6 77 77 S 7 11 29.98 1015 10 16 N/A
10:53 pm 22:53 Clear 75 23.9 68 20 79 79 SSW 6 9 30.01 1016 10 16 N/A
11:53 pm 23:53 Clear 74 23.3 68 20 82 82 S 3 6 30.02 1017 10 16 N/A

Powered by AerisWeather